Starlink 5796

operational
NORAD ID: 55916 Int'l Des: 2023-037 Owner: SPXS Country: US Constellation: starlink
LEOCIRCULAR

About Starlink 5796

Description loading...

Live Position

Loading 3D Globe...

Upcoming Passes

Altitude History

Altitude vs Time

uPlot chart will show altitude changes over time

Two-Line Element Set

1 55916U 23037C 26020.28598099 .00001263 00000-0 11363-3 0 9990
2 55916 69.9992 66.6261 0003111 270.4955 89.5848 14.98333243156236
Epoch: Jan 20, 2026 • Age: 23 hours

Current Status

Altitude 585.0 km
Velocity 7.57 km/s
Sub-Earth Point -39.30°S, 46.52°E
Launch Date Mar 17, 2023
Age 2.8 years
Type internet

Technical Details

Classification Payload
Mass 305.00 kg
Dry Mass 290.00 kg
Total Mass 305.00 kg
Length 0.20 m
Diameter 2.80 m
Span 9.00 m
Shape Box + pan
Manufacturer SPXS
Bus Type Starlink
Phase Status In Orbit
Owner/State SPXS/US

Large Constellations

Loading constellations...